QPF
-0.00 0.00 0.00 -0.00 0.00 0.00 0.00 -0.00 0.00 0.00 0.00 -0.00 0.00 0.00 0.00 0.00 0.00 0.00 0.00 0.00 0.00 -0.00 0.00 0.00 0.00 -0.00 0.00 0.00 -0.00 0.00 0.00 0.00 0.00 0.00 0.00 0.00 0.00 0.00 -0.00 0.00 0.00 0.00 0.00 0.00 0.00 0.00 0.00 0.00 0.00 0.00 0.00 0.00 0.00 0.00 0.00 0.00 0.00 0.00 0.00 0.00 0.00 0.00 0.00
0.00 0.00 -0.00 0.00 0.00 0.00 -0.00 0.00 0.00 -0.00 0.00 0.00 0.00 0.00 0.00 -0.00 0.00 0.00 0.00 0.00 0.00 0.00 0.00 0.00 0.00 0.00 0.00 -0.00 0.00 -0.00 0.00 0.00 0.00 0.00 -0.00 0.00 -0.00 -0.00 0.00 -0.00 0.00 0.00 0.00 0.00 0.00 0.00 0.00 -0.00 0.00 0.00 -0.00 0.00 0.00 0.00 0.00 0.00 0.00 0.00 0.00 0.00 0.00 0.00 0.00
0.00 0.00 0.00 0.00 0.00 0.00 -0.00 0.00 0.00 0.00 0.00 0.00 0.00 0.00 0.00 0.00 0.00 -0.00 0.00 0.00 0.00 0.00 0.00 0.00 -0.00 0.00 0.00 -0.00 0.00 0.00 0.00 -0.00 0.00 0.00 0.00 0.00 -0.00 0.00 0.00 -0.00 -0.00 0.00 0.00 0.00 0.00 -0.00 0.00 0.00 -0.00 0.00 0.00 0.00 0.00 0.00 0.00 0.00 0.00 0.00 0.00 0.00 0.00 0.00 0.00
0.00 0.00 0.00 0.00 0.00 -0.00 0.00 -0.00 -0.00 0.00 -0.00 0.00 0.00 0.00 0.00 0.00 0.00 -0.00 -0.00 0.00 0.00 -0.00 -0.00 0.00 0.00 0.00 0.00 0.00 0.00 0.00 0.00 0.00 -0.00 -0.00 0.00 0.00 0.00 0.00 0.00 0.00 0.00 0.00 -0.00 0.00 0.00 0.00 0.00 0.00 0.00 -0.00 0.00 -0.00 -0.00 0.00 0.00 0.00 0.00 -0.00 0.00 0.00 0.00 0.00 0.00
0.00 0.00 0.00 0.00 0.00 0.00 -0.00 0.00 0.00 0.00 0.00 0.00 -0.00 0.00 0.00 0.00 0.00 -0.00 0.00 0.00 0.00 0.00 0.00 0.00 0.00 0.00 0.00 0.00 0.00 0.00 0.00 0.00 0.00 0.00 0.00 -0.00 0.00 0.00 0.00 0.00 0.00 0.00 0.00 0.00 0.00 0.00 0.00 0.00 0.00 -0.00 0.00 0.00 0.00 0.00 0.00 0.00 0.00 0.00 0.00 -0.00 0.00 0.00 0.00
0.00 0.00 0.00 0.00 0.00 0.00 0.00 0.00 -0.00 -0.00 0.00 0.00 0.00 0.00 0.00 0.00 0.00 0.00 0.00 0.00 0.00 0.00 -0.00 0.00 0.00 0.00 0.00 0.00 0.00 0.00 0.00 0.00 0.00 -0.00 0.00 0.00 0.00 0.00 0.00 0.00 0.00 0.00 0.00 0.00 0.00 -0.00 -0.00 -0.00 0.00 0.00 0.00 0.00 -0.00 0.00 -0.00 0.00 0.00 0.00 0.00 0.00 0.00 0.00 0.00
0.00 0.00 0.00 0.00 0.00 0.00 0.00 0.00 0.00 0.00 0.00 0.00 0.00 0.00 -0.00 -0.00 0.00 0.00 0.00 0.00 0.00 0.00 0.00 0.00 0.00 0.00 0.00 0.00 0.00 0.00 -0.00 0.00 0.00 0.00 0.00 0.00 0.00 0.00 0.00 0.00 0.00 0.00 0.00 0.00 -0.00 0.00 0.00 0.00 0.00 0.00 -0.00 -0.00 0.00 0.00 0.00 0.00 0.00 0.00 0.00 0.00 0.00 -0.00 0.00
0.01 0.00 0.00 0.00 0.00 0.00 0.00 0.00 0.00 0.00 0.00 0.00 -0.00 0.00 0.00 0.00 0.00 0.00 0.00 0.00 0.00 0.00 0.00 0.00 0.00 0.00 0.00 0.00 0.00 0.00 0.00 0.00 0.00 0.00 0.00 0.00 -0.00 0.00 0.00 0.00 0.00 0.00 0.00 0.00 0.00 0.00 0.00 0.00 -0.00 0.00 0.00 -0.00 0.00 0.00 0.00 -0.00 0.00 0.00 -0.00 0.00 0.00 0.00 -0.00
0.01 0.01 0.00 0.00 0.00 0.00 0.00 0.00 0.00 -0.00 0.00 -0.00 -0.00 0.00 0.00 0.00 0.00 0.00 0.00 0.00 0.00 0.00 0.00 0.00 0.00 0.00 0.00 0.00 0.00 0.00 0.00 -0.00 0.00 0.00 0.00 0.00 0.00 0.00 0.00 0.00 0.00 0.00 0.00 0.00 0.00 0.00 0.00 0.00 0.00 0.00 0.00 0.00 -0.00 0.00 0.00 0.00 0.00 0.00 0.00 0.00 0.00 0.00 0.00
0.01 0.01 0.01 0.00 0.00 0.00 0.00 0.00 0.00 0.00 0.00 0.00 0.00 0.00 0.00 0.00 -0.00 0.00 0.00 0.00 0.00 0.00 0.00 0.00 0.00 0.00 0.00 0.00 0.00 0.00 0.00 0.00 0.00 0.00 0.00 0.00 0.00 0.00 0.00 0.00 0.01 0.01 0.00 0.00 0.00 0.00 0.00 0.00 0.00 0.00 0.00 0.00 0.00 0.00 0.00 0.00 0.00 0.00 0.00 -0.00 0.00 0.00 -0.00
0.01 0.01 0.01 0.00 0.00 0.00 0.00 0.00 0.00 0.00 0.00 0.00 0.00 0.00 0.00 0.00 0.00 0.00 0.00 0.00 0.00 0.00 0.00 0.00 0.00 0.00 0.00 0.00 0.00 0.00 0.00 0.00 0.00 0.00 0.00 0.00 0.00 0.00 0.00 0.00 0.01 0.00 0.00 0.00 0.00 0.00 0.00 0.00 0.00 0.00 0.00 0.00 0.00 0.00 0.00 0.00 0.00 0.00 0.00 0.00 0.00 0.00 0.00
0.02 0.01 0.01 0.01 0.01 0.01 0.00 0.00 0.00 0.00 0.00 0.00 0.00 0.00 0.01 0.01 0.00 0.00 0.00 0.00 0.00 0.00 0.00 0.00 0.00 0.00 0.00 0.00 -0.00 0.00 0.00 0.00 0.00 0.00 0.00 0.01 0.01 0.01 0.00 0.00 0.00 0.00 0.00 0.00 0.00 0.00 0.00 0.00 0.00 -0.00 0.00 0.00 0.00 0.00 0.00 0.00 0.00 0.00 0.00 0.00 0.00 0.00 0.00
0.02 0.01 0.01 0.01 0.01 0.01 0.01 0.00 0.00 0.00 0.00 0.00 0.00 0.00 0.01 0.01 0.01 0.01 0.00 0.00 0.00 0.00 0.00 0.00 0.00 0.00 0.00 0.00 0.00 0.00 0.00 0.00 0.00 0.00 0.00 0.01 0.01 0.01 0.03 0.02 0.00 0.00 0.00 0.00 0.00 0.00 0.00 0.00 0.00 0.00 0.00 -0.00 0.00 0.00 0.00 0.00 0.00 0.00 0.00 0.00 -0.00 0.00 0.00
0.02 0.02 0.01 0.01 0.01 0.01 0.01 0.01 0.00 0.00 0.00 0.00 0.00 0.00 0.01 0.01 0.01 0.01 0.01 0.01 0.00 0.00 0.00 0.00 0.00 0.00 0.00 0.00 0.00 0.00 0.00 0.00 0.00 0.00 0.00 0.00 0.01 0.01 0.01 0.01 0.06 0.04 0.01 0.00 0.00 0.00 0.00 0.00 0.00 0.00 0.00 0.00 0.00 0.00 0.00 0.00 0.00 0.00 0.00 0.00 0.00 0.00 -0.00
0.02 0.02 0.02 0.01 0.01 0.01 0.01 0.01 0.00 0.00 0.00 0.00 0.00 0.00 0.01 0.01 0.01 0.01 0.01 0.01 0.01 0.00 0.00 0.00 0.00 0.00 0.00 0.00 0.00 0.00 0.00 0.00 0.00 0.00 0.00 0.00 0.00 0.00 0.00 0.00 0.00 0.01 0.05 0.03 0.01 0.00 0.00 0.00 0.00 0.00 0.00 0.00 0.00 0.00 0.00 0.00 0.00 0.00 0.00 0.00 0.00 0.00 0.00
0.02 0.02 0.02 0.02 0.01 0.01 0.01 0.01 0.01 0.01 0.00 0.00 0.01 0.01 0.01 0.01 0.01 0.01 0.01 0.01 0.01 0.01 0.00 0.00 0.00 0.00 0.00 0.00 0.00 0.00 0.00 0.00 0.00 0.01 0.01 0.00 0.00 0.00 0.00 0.00 0.00 0.00 0.00 0.01 0.01 0.00 0.00 0.00 0.00 0.00 0.00 0.00 0.00 0.00 0.00 0.00 0.00 0.00 0.00 0.00 0.00 0.00 0.00
0.02 0.02 0.02 0.02 0.01 0.01 0.01 0.01 0.01 0.01 0.00 0.01 0.01 0.01 0.01 0.01 0.01 0.01 0.01 0.01 0.01 0.00 0.00 0.00 0.00 0.00 0.00 0.00 0.00 0.00 0.00 0.01 0.05 0.03 0.02 0.01 0.01 0.00 0.00 0.00 0.00 0.00 0.01 0.01 0.01 0.00 0.00 0.00 0.00 0.00 0.00 0.00 0.00 0.00 0.00 0.00 0.01 0.01 0.01 0.01 0.01 0.00 0.00
0.03 0.02 0.02 0.02 0.01 0.01 0.01 0.01 0.01 0.01 0.01 0.01 0.01 0.01 0.01 0.01 0.01 0.01 0.01 0.01 0.01 0.00 0.00 0.00 0.00 0.00 0.01 0.01 0.01 0.01 0.01 0.01 0.04 0.08 0.03 0.01 0.01 0.01 0.00 0.00 0.00 0.00 0.00 0.00 0.01 0.02 0.01 0.01 0.01 0.00 0.00 0.00 0.00 0.00 0.00 0.01 0.01 0.00 0.00 0.00 0.00 0.00 0.00
0.03 0.02 0.02 0.02 0.02 0.01 0.01 0.01 0.01 0.01 0.01 0.01 0.01 0.01 0.01 0.01 0.01 0.01 0.01 0.01 0.01 0.00 0.00 0.00 0.00 0.01 0.03 0.03 0.01 0.00 0.01 0.02 0.03 0.05 0.02 0.00 0.00 0.00 0.01 0.00 0.00 0.00 0.00 0.01 0.01 0.00 0.00 0.00 0.01 0.02 0.03 0.02 0.00 0.01 0.01 0.01 0.00 0.00 0.00 0.00 0.00 0.00 0.00
0.02 0.02 0.02 0.02 0.02 0.01 0.01 0.01 0.01 0.01 0.00 0.00 0.01 0.01 0.01 0.01 0.01 0.01 0.01 0.01 0.01 0.00 0.01 0.01 0.01 0.01 0.01 0.04 0.04 0.02 0.02 0.02 0.02 0.02 0.06 0.04 0.02 0.01 0.00 0.00 0.00 0.00 0.01 0.01 0.02 0.03 0.01 0.00 0.00 0.00 0.00 0.02 0.04 0.02 0.01 0.02 0.01 0.00 0.00 0.00 0.00 0.00 0.00
0.02 0.02 0.02 0.02 0.01 0.01 0.01 0.01 0.01 0.00 0.00 0.00 0.00 0.01 0.02 0.02 0.02 0.01 0.01 0.01 0.01 0.01 0.01 0.01 0.01 0.01 0.01 0.01 0.03 0.03 0.02 0.01 0.01 0.01 0.02 0.03 0.04 0.02 0.00 0.00 0.00 0.00 0.00 0.01 0.00 0.00 0.01 0.02 0.01 0.01 0.00 0.00 0.00 0.01 0.02 0.01 0.02 0.01 0.00 0.00 0.00 0.00 0.00
0.03 0.02 0.02 0.02 0.01 0.01 0.01 0.01 0.01 0.00 0.00 0.00 0.00 0.01 0.01 0.02 0.02 0.01 0.01 0.01 0.01 0.01 0.01 0.01 0.01 0.01 0.01 0.01 0.01 0.02 0.01 0.00 0.00 0.01 0.02 0.02 0.03 0.06 0.03 0.01 0.01 0.00 0.00 0.00 0.00 0.00 0.01 0.01 0.01 0.01 0.00 0.00 0.00 0.00 0.00 0.01 0.01 0.01 0.01 0.00 0.00 0.00 0.00
0.03 0.02 0.02 0.02 0.01 0.01 0.01 0.01 0.01 0.00 0.00 0.00 0.00 0.00 0.01 0.02 0.02 0.01 0.01 0.01 0.01 0.01 0.01 0.01 0.01 0.01 0.01 0.01 0.01 0.00 0.00 0.00 0.00 0.01 0.01 0.01 0.01 0.03 0.04 0.08 0.06 0.04 0.03 0.02 0.01 0.01 0.01 0.00 0.01 0.01 0.01 0.00 0.00 0.00 0.00 0.00 0.00 0.01 0.01 0.01 0.00 0.00 0.00
0.02 0.02 0.02 0.01 0.01 0.01 0.01 0.01 0.01 0.00 0.00 0.00 0.00 0.00 0.01 0.02 0.02 0.02 0.02 0.03 0.02 0.01 0.01 0.01 0.01 0.01 0.01 0.01 0.01 0.01 0.00 0.00 0.00 0.00 0.00 0.01 0.01 0.03 0.04 0.03 0.01 0.02 0.01 0.02 0.02 0.01 0.01 0.00 0.00 0.00 0.00 0.00 0.00 0.00 0.00 0.00 0.01 0.01 0.01 0.01 0.01 0.01 0.00
0.02 0.02 0.02 0.01 0.01 0.01 0.01 0.01 0.00 0.00 0.00 0.00 0.00 0.01 0.01 0.02 0.02 0.04 0.04 0.04 0.04 0.02 0.01 0.01 0.01 0.01 0.01 0.01 0.01 0.01 0.01 0.00 0.00 0.00 0.01 0.01 0.01 0.00 0.00 0.01 0.01 0.00 0.00 0.00 0.01 0.01 0.00 0.00 0.00 0.00 0.00 0.00 0.00 0.00 0.00 0.01 0.01 0.01 0.00 0.00 0.01 0.01 0.01
0.02 0.02 0.01 0.01 0.01 0.01 0.01 0.00 0.01 0.00 0.00 0.00 0.01 0.01 0.02 0.03 0.04 0.04 0.04 0.05 0.04 0.02 0.02 0.01 0.01 0.01 0.01 0.01 0.01 0.01 0.01 0.01 0.00 0.00 0.01 0.02 0.01 0.00 0.00 0.00 0.00 0.00 0.00 0.00 0.00 0.00 0.00 0.00 0.00 0.00 0.00 0.00 0.00 0.00 0.00 0.00 0.00 0.00 0.00 0.00 0.00 0.00 0.01
0.02 0.01 0.01 0.01 0.01 0.01 0.01 0.01 0.01 0.00 0.00 0.01 0.01 0.01 0.01 0.02 0.02 0.02 0.02 0.02 0.02 0.01 0.01 0.01 0.01 0.01 0.01 0.01 0.01 0.01 0.01 0.00 0.00 0.00 0.01 0.01 0.00 0.00 0.00 0.00 0.00 0.00 0.00 0.00 0.00 0.00 0.00 0.00 0.00 0.01 0.01 0.01 0.00 0.00 0.00 0.00 0.00 0.00 0.00 0.00 0.00 0.00 0.00
0.02 0.01 0.01 0.01 0.01 0.01 0.01 0.01 0.00 0.00 0.00 0.01 0.01 0.01 0.01 0.01 0.01 0.00 0.00 0.00 0.00 0.00 0.00 0.00 0.00 0.00 0.00 0.01 0.01 0.01 0.01 0.01 0.00 0.00 0.00 0.00 0.00 0.00 0.00 0.00 0.00 0.00 0.00 0.00 0.00 0.00 0.00 0.00 0.00 0.00 0.00 0.01 0.01 0.00 0.00 0.00 0.00 0.00 0.00 0.00 0.00 0.00 0.00
0.02 0.01 0.01 0.01 0.01 0.01 0.01 0.00 0.00 0.00 0.00 0.01 0.01 0.01 0.01 0.00 0.00 0.00 0.00 0.00 0.00 0.00 0.00 0.00 0.00 0.00 0.00 0.01 0.01 0.01 0.01 0.01 0.00 0.01 0.01 0.00 0.00 0.00 0.00 0.00 0.00 0.00 0.00 0.00 0.00 0.00 0.00 0.00 0.00 0.00 0.00 0.00 0.00 0.00 0.00 0.01 0.01 0.01 0.00 0.00 0.00 0.00 0.00
0.01 0.01 0.01 0.01 0.01 0.01 0.00 0.00 0.00 0.01 0.01 0.01 0.01 0.01 0.00 0.00 0.00 0.00 0.00 0.00 0.00 0.00 0.00 0.00 0.00 0.01 0.01 0.01 0.01 0.01 0.01 0.01 0.01 0.00 0.00 0.00 0.00 0.00 0.00 0.00 0.00 0.00 0.00 0.00 0.00 0.00 0.00 0.00 0.00 0.00 0.00 0.00 0.00 0.00 0.00 0.00 0.00 0.00 0.00 0.00 0.00 0.00 0.00
0.02 0.02 0.01 0.01 0.01 0.01 0.00 0.01 0.01 0.01 0.02 0.02 0.01 0.01 0.01 0.01 0.01 0.01 0.03 0.04 0.02 0.02 0.01 0.01 0.01 0.01 0.01 0.01 0.01 0.01 0.01 0.01 0.01 0.01 0.00 0.00 0.00 0.00 0.00 0.00 0.00 0.00 0.00 0.00 0.00 0.00 0.00 0.00 0.00 0.00 0.00 0.00 0.01 0.01 0.00 0.00 0.00 0.00 0.01 0.01 0.01 0.00 0.00
0.02 0.03 0.03 0.02 0.01 0.01 0.00 0.00 0.01 0.02 0.03 0.03 0.02 0.01 0.01 0.02 0.03 0.03 0.03 0.01 0.02 0.02 0.01 0.01 0.01 0.01 0.01 0.01 0.01 0.01 0.01 0.01 0.00 0.00 0.00 0.00 0.00 0.00 0.00 0.00 0.00 0.00 0.00 0.00 0.00 0.00 0.00 0.00 0.00 0.00 0.00 0.00 0.01 0.01 0.01 0.01 0.00 0.01 0.01 0.01 0.01 0.00 0.00
0.03 0.03 0.03 0.03 0.02 0.01 0.00 0.01 0.01 0.02 0.02 0.02 0.02 0.02 0.03 0.02 0.01 0.01 0.01 0.01 0.00 0.01 0.01 0.01 0.00 0.00 0.01 0.01 0.01 0.00 0.00 0.00 0.00 0.00 0.00 0.00 0.00 0.00 0.00 0.00 0.00 0.00 0.00 0.00 0.00 0.00 0.00 0.00 0.00 0.00 0.00 0.01 0.01 0.01 0.01 0.01 0.01 0.01 0.01 0.01 0.01 0.01 0.01
0.04 0.03 0.03 0.03 0.03 0.03 0.03 0.02 0.01 0.01 0.02 0.02 0.02 0.03 0.03 0.01 0.01 0.00 0.00 0.00 0.00 0.00 0.00 0.00 0.00 0.00 0.00 0.00 0.00 0.00 0.00 0.00 0.00 0.00 0.00 0.00 0.00 0.00 0.00 0.00 0.00 0.00 0.00 0.00 0.00 0.00 0.00 0.00 0.00 0.00 0.00 0.01 0.01 0.01 0.01 0.02 0.02 0.01 0.01 0.01 0.02 0.02 0.01
0.03 0.04 0.04 0.03 0.02 0.03 0.05 0.05 0.02 0.02 0.02 0.02 0.03 0.02 0.01 0.00 0.00 0.00 0.00 0.00 0.00 0.00 0.00 0.00 0.00 0.00 0.00 0.00 0.00 0.00 0.00 0.00 0.00 0.00 0.00 0.00 0.00 0.00 0.00 0.00 0.00 0.00 0.00 0.00 0.00 0.00 0.00 0.00 0.00 0.00 0.00 0.00 0.01 0.01 0.01 0.01 0.02 0.02 0.02 0.01 0.01 0.01 0.01
0.02 0.02 0.02 0.02 0.02 0.01 0.02 0.04 0.03 0.01 0.02 0.03 0.01 0.01 0.01 0.00 0.00 0.00 0.00 0.00 0.00 0.00 0.00 0.00 0.00 0.00 0.00 0.00 0.00 0.00 0.00 0.00 0.00 0.00 0.00 0.00 0.00 0.00 0.00 0.00 0.00 0.00 0.00 0.00 0.00 0.00 0.00 0.00 0.00 0.00 0.00 0.00 0.00 0.01 0.01 0.01 0.01 0.01 0.02 0.02 0.01 0.01 0.01
MSLP
1017.80 1018.04 1018.24 1018.44 1018.60 1018.76 1018.92 1019.00 1019.08 1019.08 1019.12 1019.12 1019.16 1019.28 1019.48 1019.68 1019.84 1019.96 1019.92 1019.88 1019.88 1019.96 1020.12 1020.28 1020.32 1020.32 1020.36 1020.36 1020.36 1019.92 1019.84 1020.04 1020.28 1020.40 1020.48 1020.32 1020.28 1020.60 1020.76 1021.00 1021.16 1021.24 1020.84 1020.20 1019.76 1019.40 1019.16 1019.04 1019.04 1018.80 1018.80 1018.60 1018.40 1018.28 1018.16 1017.96 1017.72 1017.60 1017.56 1017.48 1017.40 1017.20 1017.08
1017.40 1017.64 1017.88 1018.04 1018.16 1018.36 1018.48 1018.56 1018.68 1018.72 1018.72 1018.80 1018.88 1019.00 1019.16 1019.36 1019.56 1019.68 1019.68 1019.60 1019.60 1019.60 1019.64 1019.88 1020.04 1020.16 1020.24 1020.28 1020.44 1020.36 1020.08 1019.72 1019.80 1019.96 1020.12 1020.12 1020.32 1020.40 1020.56 1020.64 1020.88 1020.84 1020.76 1020.52 1019.88 1019.52 1019.20 1019.00 1019.04 1018.80 1018.48 1018.52 1018.44 1018.36 1018.16 1018.00 1017.88 1017.68 1017.60 1017.56 1017.48 1017.32 1017.16
1016.96 1017.24 1017.52 1017.68 1017.84 1018.00 1018.12 1018.20 1018.28 1018.32 1018.40 1018.48 1018.56 1018.68 1018.80 1018.96 1019.16 1019.24 1019.28 1019.28 1019.24 1019.28 1019.32 1019.44 1019.68 1019.80 1019.96 1020.04 1020.24 1020.36 1020.24 1020.08 1020.04 1020.04 1020.08 1020.20 1020.20 1020.28 1020.32 1020.32 1020.36 1020.48 1020.40 1020.32 1019.96 1019.60 1019.20 1019.00 1018.72 1018.76 1018.48 1018.44 1018.36 1018.24 1018.08 1017.96 1017.76 1017.72 1017.60 1017.52 1017.48 1017.36 1017.24
1016.48 1016.80 1017.12 1017.32 1017.52 1017.64 1017.76 1017.84 1017.88 1018.00 1018.08 1018.20 1018.32 1018.44 1018.52 1018.60 1018.72 1018.84 1018.88 1018.88 1018.80 1018.76 1018.84 1018.96 1019.28 1019.40 1019.56 1019.72 1019.96 1020.00 1020.04 1019.96 1020.00 1019.96 1019.92 1020.04 1020.08 1020.04 1020.08 1020.00 1019.96 1019.96 1020.00 1019.84 1019.72 1019.32 1019.36 1018.96 1018.84 1018.60 1018.44 1018.36 1018.16 1018.20 1018.08 1017.96 1017.72 1017.56 1017.44 1017.40 1017.32 1017.32 1017.20
1015.92 1016.16 1016.52 1016.80 1017.00 1017.20 1017.36 1017.44 1017.52 1017.60 1017.68 1017.76 1017.88 1018.04 1018.20 1018.36 1018.52 1018.60 1018.68 1018.64 1018.60 1018.60 1018.56 1018.64 1018.76 1018.92 1019.16 1019.36 1019.56 1019.72 1019.72 1019.60 1019.76 1019.76 1019.72 1019.64 1019.60 1019.64 1019.60 1019.64 1019.56 1019.48 1019.44 1019.48 1019.48 1019.28 1018.96 1018.84 1018.68 1018.56 1018.40 1018.32 1018.16 1017.92 1017.76 1017.56 1017.52 1017.48 1017.32 1017.24 1017.20 1017.12 1017.00
1015.32 1015.52 1015.84 1016.16 1016.44 1016.60 1016.80 1016.92 1017.00 1017.12 1017.16 1017.28 1017.44 1017.56 1017.72 1017.92 1018.12 1018.24 1018.40 1018.44 1018.44 1018.36 1018.32 1018.36 1018.40 1018.48 1018.68 1018.84 1019.04 1019.12 1019.24 1019.36 1019.48 1019.56 1019.52 1019.44 1019.36 1019.28 1019.28 1019.24 1019.20 1019.12 1019.08 1019.08 1019.00 1018.92 1018.88 1018.72 1018.80 1018.64 1018.64 1018.56 1018.48 1018.20 1017.80 1017.52 1017.36 1017.20 1017.20 1017.20 1017.08 1016.92 1016.88
1014.80 1014.92 1015.28 1015.60 1015.88 1016.08 1016.24 1016.44 1016.52 1016.60 1016.68 1016.80 1016.96 1017.16 1017.40 1017.60 1017.68 1017.80 1017.88 1017.92 1018.00 1018.04 1018.08 1018.08 1018.12 1018.20 1018.28 1018.40 1018.52 1018.72 1018.80 1018.96 1019.24 1019.32 1019.40 1019.32 1019.28 1019.28 1019.24 1019.12 1019.04 1018.96 1018.96 1018.84 1018.76 1018.64 1018.60 1018.56 1018.44 1018.48 1018.36 1018.28 1018.32 1018.16 1017.92 1017.60 1017.36 1017.12 1016.92 1016.84 1016.76 1016.60 1016.44
1014.28 1014.48 1014.80 1015.08 1015.40 1015.60 1015.84 1015.96 1016.04 1016.08 1016.20 1016.36 1016.56 1016.84 1017.08 1017.24 1017.36 1017.48 1017.48 1017.44 1017.44 1017.48 1017.48 1017.56 1017.64 1017.76 1017.84 1017.92 1018.04 1018.24 1018.44 1018.60 1018.76 1018.96 1019.12 1019.00 1019.08 1019.12 1019.20 1019.12 1018.96 1018.92 1018.88 1018.84 1018.76 1018.64 1018.52 1018.40 1018.40 1018.28 1018.24 1018.04 1018.00 1018.04 1017.80 1017.60 1017.40 1017.08 1016.68 1016.52 1016.36 1016.32 1016.24
1014.00 1014.20 1014.44 1014.68 1014.96 1015.24 1015.40 1015.52 1015.56 1015.60 1015.76 1015.96 1016.32 1016.56 1016.80 1016.92 1016.96 1017.00 1017.04 1017.08 1017.04 1017.00 1017.04 1017.08 1017.16 1017.24 1017.36 1017.44 1017.56 1017.68 1017.88 1018.04 1018.20 1018.44 1018.56 1018.64 1018.72 1018.88 1018.96 1018.96 1018.88 1018.76 1018.80 1018.72 1018.60 1018.52 1018.40 1018.32 1018.16 1018.00 1018.08 1018.12 1018.08 1017.96 1017.92 1017.40 1017.12 1016.96 1016.60 1016.28 1016.08 1015.92 1015.92
1013.68 1013.88 1014.08 1014.36 1014.60 1014.84 1015.04 1015.12 1015.12 1015.16 1015.36 1015.52 1015.84 1016.32 1016.52 1016.60 1016.60 1016.64 1016.64 1016.68 1016.64 1016.52 1016.52 1016.60 1016.72 1016.80 1016.92 1017.00 1017.12 1017.20 1017.32 1017.48 1017.64 1017.84 1017.92 1017.92 1018.16 1018.40 1018.56 1018.64 1018.64 1018.60 1018.48 1018.48 1018.44 1018.36 1018.24 1018.24 1018.12 1018.00 1017.84 1017.84 1017.56 1017.28 1017.04 1017.04 1016.96 1016.76 1016.52 1016.36 1016.16 1015.88 1015.60
1013.40 1013.52 1013.72 1014.00 1014.28 1014.44 1014.60 1014.72 1014.76 1014.88 1015.04 1015.08 1015.24 1015.64 1016.08 1016.16 1016.20 1016.20 1016.28 1016.32 1016.28 1016.16 1016.08 1016.12 1016.28 1016.40 1016.52 1016.56 1016.60 1016.64 1016.72 1016.88 1017.00 1017.12 1017.28 1017.48 1017.56 1017.68 1017.84 1018.12 1018.32 1018.24 1018.16 1018.16 1018.12 1017.92 1017.92 1017.80 1017.80 1017.64 1017.52 1017.48 1017.44 1017.28 1017.24 1017.08 1016.80 1016.68 1016.44 1016.36 1016.44 1016.36 1015.72
1012.92 1013.12 1013.32 1013.60 1013.84 1014.08 1014.20 1014.36 1014.52 1014.64 1014.64 1014.64 1014.68 1014.76 1015.12 1015.48 1015.60 1015.72 1015.84 1015.96 1015.96 1015.92 1015.84 1015.80 1015.80 1015.80 1015.88 1015.92 1016.00 1016.12 1016.24 1016.28 1016.36 1016.44 1016.56 1016.68 1016.88 1017.04 1017.16 1017.20 1017.36 1017.60 1017.80 1017.84 1017.76 1017.52 1017.32 1017.44 1017.40 1017.36 1017.28 1017.24 1017.20 1017.16 1017.00 1016.92 1016.80 1016.68 1016.64 1016.52 1016.24 1016.20 1015.68
1012.56 1012.72 1012.92 1013.20 1013.40 1013.60 1013.80 1013.96 1014.12 1014.20 1014.20 1014.16 1014.20 1014.24 1014.28 1014.44 1014.80 1014.96 1015.04 1015.20 1015.40 1015.52 1015.48 1015.36 1015.24 1015.20 1015.16 1015.20 1015.32 1015.48 1015.64 1015.84 1015.92 1015.92 1015.96 1016.00 1016.08 1016.16 1016.24 1016.36 1016.56 1016.64 1016.80 1016.96 1017.08 1016.88 1016.68 1016.64 1016.68 1017.04 1016.84 1016.72 1016.80 1016.84 1016.92 1016.84 1016.76 1016.72 1016.60 1016.48 1016.40 1016.08 1015.84
1012.16 1012.32 1012.52 1012.76 1013.00 1013.24 1013.40 1013.56 1013.76 1013.88 1013.80 1013.72 1013.72 1013.72 1013.76 1013.84 1013.88 1014.16 1014.24 1014.36 1014.52 1014.68 1014.76 1014.76 1014.68 1014.60 1014.48 1014.44 1014.56 1014.64 1014.76 1015.00 1015.20 1015.36 1015.52 1015.60 1015.60 1015.56 1015.48 1015.44 1015.44 1015.76 1015.96 1016.12 1016.12 1016.12 1016.00 1015.76 1016.20 1016.12 1016.08 1016.36 1016.64 1016.88 1016.96 1016.76 1016.64 1016.40 1016.36 1016.40 1016.44 1016.32 1015.92
1011.72 1011.88 1012.12 1012.40 1012.68 1012.92 1013.08 1013.12 1013.40 1013.56 1013.48 1013.40 1013.36 1013.32 1013.36 1013.36 1013.36 1013.32 1013.48 1013.60 1013.68 1013.80 1013.84 1013.88 1013.96 1013.92 1013.80 1013.72 1013.72 1013.72 1013.88 1014.12 1014.32 1014.60 1014.80 1015.00 1015.04 1015.04 1014.96 1014.96 1014.96 1014.92 1015.12 1015.40 1015.44 1015.32 1015.20 1015.24 1015.36 1015.48 1015.72 1016.00 1016.24 1016.40 1016.36 1016.24 1016.24 1016.16 1016.12 1016.00 1015.88 1015.80 1016.04
1011.24 1011.48 1011.76 1012.04 1012.40 1012.68 1012.76 1012.88 1013.00 1013.00 1013.00 1012.96 1012.96 1013.00 1013.04 1013.00 1012.88 1012.76 1012.76 1012.80 1012.84 1012.96 1013.00 1013.08 1013.12 1013.12 1013.08 1013.04 1012.96 1012.84 1012.88 1013.12 1013.40 1013.76 1014.04 1014.20 1014.28 1014.36 1014.44 1014.36 1014.16 1014.28 1014.32 1014.40 1014.56 1014.64 1014.68 1014.72 1014.76 1014.92 1015.20 1015.36 1015.60 1015.80 1015.96 1016.16 1016.12 1016.08 1016.04 1015.96 1015.96 1016.08 1015.72
1010.76 1011.00 1011.32 1011.64 1011.96 1012.28 1012.40 1012.56 1012.64 1012.60 1012.52 1012.52 1012.52 1012.60 1012.60 1012.56 1012.48 1012.40 1012.32 1012.28 1012.32 1012.36 1012.32 1012.28 1012.28 1012.36 1012.28 1012.24 1012.16 1012.08 1012.12 1012.12 1012.40 1012.92 1013.16 1013.36 1013.52 1013.64 1013.80 1013.64 1013.68 1013.72 1013.72 1013.64 1013.64 1013.68 1013.96 1014.08 1014.24 1014.40 1014.44 1014.60 1014.80 1015.00 1015.32 1015.72 1015.96 1015.80 1015.64 1015.64 1015.60 1015.36 1015.12
1010.52 1010.72 1010.96 1011.24 1011.52 1011.76 1012.04 1012.12 1012.24 1012.28 1012.20 1012.16 1012.12 1012.16 1012.20 1012.12 1012.04 1011.96 1011.92 1011.88 1011.88 1011.80 1011.64 1011.56 1011.56 1011.64 1011.72 1011.72 1011.52 1011.40 1011.44 1011.40 1011.48 1011.72 1012.20 1012.48 1012.76 1013.04 1013.20 1013.08 1013.16 1013.44 1013.40 1013.32 1013.24 1013.08 1013.00 1013.24 1013.52 1013.68 1013.76 1013.84 1013.96 1014.24 1014.80 1015.24 1015.16 1014.84 1015.04 1015.20 1014.96 1014.80 1014.52
1010.20 1010.44 1010.68 1010.88 1011.16 1011.36 1011.60 1011.72 1011.88 1011.88 1011.76 1011.72 1011.72 1011.68 1011.72 1011.68 1011.60 1011.48 1011.32 1011.24 1011.12 1011.08 1010.96 1010.84 1010.80 1010.88 1011.00 1011.04 1010.92 1010.80 1010.72 1010.60 1010.60 1010.72 1011.16 1011.60 1012.00 1012.36 1012.56 1012.20 1012.36 1012.76 1013.04 1013.24 1013.32 1013.08 1013.00 1012.92 1012.84 1012.92 1013.20 1013.36 1013.44 1013.56 1013.96 1014.28 1014.28 1014.44 1014.64 1014.68 1014.56 1014.48 1014.32
1009.92 1010.16 1010.28 1010.48 1010.80 1011.08 1011.16 1011.36 1011.44 1011.56 1011.48 1011.40 1011.24 1011.08 1011.12 1011.12 1011.00 1010.84 1010.80 1010.76 1010.60 1010.44 1010.28 1010.24 1010.16 1010.12 1010.12 1010.16 1010.12 1010.12 1010.04 1009.88 1009.96 1010.08 1010.48 1010.92 1011.28 1011.56 1011.68 1011.36 1011.76 1011.92 1012.08 1012.36 1012.68 1012.68 1012.72 1012.68 1012.64 1012.76 1012.76 1012.80 1012.92 1013.08 1013.32 1013.52 1013.76 1013.96 1014.00 1014.08 1014.08 1014.04 1014.08
1009.68 1009.92 1010.08 1010.28 1010.52 1010.76 1010.96 1011.12 1011.24 1011.20 1011.12 1011.00 1010.88 1010.72 1010.52 1010.52 1010.44 1010.40 1010.36 1010.28 1010.20 1010.00 1009.76 1009.60 1009.52 1009.40 1009.28 1009.32 1009.32 1009.36 1009.44 1009.52 1009.60 1009.80 1010.00 1010.28 1010.60 1010.72 1010.48 1010.72 1011.04 1011.20 1011.44 1011.72 1012.00 1012.16 1012.28 1012.40 1012.52 1012.52 1012.52 1012.52 1012.56 1012.60 1012.72 1012.88 1013.04 1013.32 1013.52 1013.68 1013.80 1013.80 1013.76
1009.56 1009.76 1009.96 1010.08 1010.28 1010.44 1010.64 1010.72 1010.88 1010.92 1010.88 1010.68 1010.44 1010.20 1009.96 1009.88 1009.76 1009.76 1009.84 1009.60 1009.36 1009.20 1009.04 1008.88 1008.64 1008.56 1008.60 1008.76 1008.84 1008.88 1009.04 1009.16 1009.36 1009.52 1009.76 1009.76 1009.88 1009.88 1010.00 1010.16 1010.24 1010.36 1010.64 1010.96 1011.20 1011.40 1011.68 1011.88 1012.00 1012.08 1012.16 1012.16 1012.12 1012.12 1012.20 1012.36 1012.48 1012.64 1012.92 1013.12 1013.24 1013.36 1013.52
1009.48 1009.68 1009.84 1010.00 1010.04 1010.12 1010.28 1010.40 1010.44 1010.40 1010.48 1010.40 1010.16 1009.84 1009.52 1009.32 1009.32 1009.20 1009.08 1009.00 1008.76 1008.64 1008.60 1008.40 1008.24 1008.16 1008.28 1008.52 1008.68 1008.76 1008.84 1009.00 1009.16 1009.36 1009.48 1009.56 1009.52 1009.56 1009.56 1009.68 1009.68 1009.68 1009.84 1010.20 1010.56 1010.84 1011.12 1011.28 1011.44 1011.56 1011.56 1011.52 1011.60 1011.64 1011.84 1011.96 1012.04 1012.12 1012.32 1012.52 1012.68 1012.76 1012.84
1009.28 1009.52 1009.64 1009.80 1009.80 1009.88 1009.96 1010.04 1010.08 1010.00 1009.88 1009.84 1009.68 1009.36 1009.04 1008.84 1008.64 1008.60 1008.56 1008.48 1008.32 1008.16 1008.04 1007.92 1007.96 1007.96 1008.12 1008.32 1008.44 1008.56 1008.68 1008.80 1009.00 1009.08 1009.20 1009.28 1009.32 1009.32 1009.36 1009.44 1009.48 1009.52 1009.56 1009.76 1010.12 1010.40 1010.60 1010.68 1010.80 1010.96 1011.04 1010.96 1010.88 1010.96 1011.24 1011.52 1011.68 1011.76 1011.84 1011.96 1012.04 1012.24 1012.40
1008.84 1009.12 1009.24 1009.44 1009.52 1009.52 1009.48 1009.52 1009.48 1009.36 1009.12 1009.00 1008.92 1008.72 1008.52 1008.24 1008.08 1007.88 1007.84 1007.92 1007.80 1007.68 1007.52 1007.56 1007.64 1007.80 1007.96 1008.12 1008.24 1008.36 1008.52 1008.64 1008.76 1008.88 1008.96 1009.08 1009.08 1009.20 1009.24 1009.40 1009.48 1009.48 1009.48 1009.60 1009.64 1009.80 1009.88 1009.92 1010.00 1010.08 1010.08 1010.24 1010.44 1010.68 1010.96 1011.24 1011.44 1011.60 1011.60 1011.60 1011.72 1011.84 1012.00
1008.52 1008.80 1009.00 1009.12 1009.16 1009.08 1008.92 1008.88 1008.72 1008.44 1008.32 1008.24 1008.08 1008.08 1007.92 1007.64 1007.44 1007.32 1007.16 1007.12 1007.12 1007.16 1007.28 1007.36 1007.52 1007.72 1007.88 1008.00 1008.12 1008.24 1008.28 1008.36 1008.48 1008.64 1008.72 1008.76 1008.84 1009.08 1009.04 1009.20 1009.28 1009.36 1009.44 1009.40 1009.52 1009.60 1009.60 1009.48 1009.40 1009.52 1009.64 1009.92 1010.24 1010.56 1010.84 1011.00 1011.16 1011.32 1011.48 1011.60 1011.68 1011.76 1011.76
1008.28 1008.52 1008.72 1008.84 1008.80 1008.68 1008.56 1008.40 1008.12 1007.80 1007.68 1007.64 1007.64 1007.52 1007.40 1007.24 1006.96 1006.76 1006.80 1006.84 1006.88 1006.92 1007.00 1007.20 1007.40 1007.52 1007.60 1007.72 1007.80 1007.92 1008.04 1008.20 1008.32 1008.48 1008.68 1008.96 1009.04 1009.04 1009.08 1009.20 1009.28 1009.28 1009.32 1009.32 1009.48 1009.52 1009.56 1009.44 1009.28 1009.28 1009.48 1009.84 1010.20 1010.36 1010.48 1010.60 1010.80 1010.92 1011.00 1011.20 1011.36 1011.48 1011.52
1007.96 1008.12 1008.24 1008.40 1008.32 1008.28 1008.12 1007.76 1007.40 1007.16 1007.04 1006.96 1007.00 1006.96 1006.88 1006.72 1006.64 1006.60 1006.56 1006.56 1006.68 1006.88 1007.08 1007.32 1007.48 1007.64 1007.68 1007.76 1007.88 1007.92 1008.00 1008.08 1008.20 1008.32 1008.56 1008.76 1009.08 1009.24 1009.36 1009.40 1009.40 1009.44 1009.40 1009.40 1009.48 1009.60 1009.68 1009.64 1009.56 1009.44 1009.48 1009.64 1009.80 1009.88 1009.96 1010.16 1010.44 1010.52 1010.64 1010.80 1011.04 1011.32 1011.32
1007.36 1007.60 1007.76 1007.80 1007.72 1007.68 1007.40 1007.00 1006.72 1006.44 1006.40 1006.36 1006.40 1006.36 1006.28 1006.36 1006.32 1006.32 1006.36 1006.40 1006.56 1006.88 1007.16 1007.32 1007.44 1007.52 1007.56 1007.68 1007.80 1007.92 1008.04 1008.12 1008.40 1008.64 1008.84 1009.04 1009.04 1009.12 1009.20 1009.24 1009.16 1009.20 1009.28 1009.36 1009.52 1009.68 1009.64 1009.56 1009.48 1009.40 1009.24 1009.20 1009.28 1009.40 1009.52 1009.68 1010.00 1010.16 1010.28 1010.40 1010.60 1010.64 1010.56
1006.92 1007.12 1007.40 1007.52 1007.36 1007.16 1006.72 1006.32 1006.00 1005.88 1005.88 1005.92 1005.92 1005.92 1005.92 1005.96 1006.00 1006.08 1006.16 1006.28 1006.44 1006.56 1006.80 1007.04 1007.20 1007.28 1007.36 1007.48 1007.56 1007.68 1007.92 1008.16 1008.20 1008.32 1008.56 1008.72 1008.92 1008.92 1008.92 1009.12 1009.24 1009.36 1009.48 1009.60 1009.68 1009.64 1009.60 1009.52 1009.44 1009.36 1009.28 1009.16 1008.96 1008.84 1008.88 1009.04 1009.40 1009.68 1009.92 1010.12 1010.24 1010.20 1010.04
1006.24 1006.52 1006.84 1007.08 1007.04 1006.80 1006.64 1006.36 1006.08 1005.76 1005.48 1005.44 1005.52 1005.60 1005.64 1005.68 1005.72 1005.84 1005.96 1006.04 1006.24 1006.44 1006.56 1006.64 1006.88 1007.00 1007.16 1007.28 1007.32 1007.36 1007.48 1007.88 1008.20 1008.28 1008.28 1008.56 1008.76 1008.96 1009.24 1009.44 1009.44 1009.60 1009.76 1009.84 1009.72 1009.72 1009.64 1009.56 1009.52 1009.40 1009.20 1009.16 1009.04 1008.84 1008.60 1008.64 1008.88 1009.16 1009.48 1009.68 1009.68 1009.76 1009.64
1005.84 1005.84 1005.92 1006.28 1006.52 1006.56 1006.44 1006.24 1006.04 1005.80 1005.48 1005.20 1005.12 1005.16 1005.28 1005.36 1005.40 1005.48 1005.60 1005.76 1005.84 1006.12 1006.28 1006.36 1006.56 1006.80 1007.12 1007.28 1007.44 1007.60 1007.96 1008.20 1008.32 1008.64 1008.72 1008.92 1008.96 1009.12 1009.40 1009.64 1009.68 1010.20 1010.28 1009.92 1009.84 1009.76 1009.68 1009.64 1009.56 1009.48 1009.44 1009.32 1009.20 1009.20 1008.92 1008.48 1008.48 1008.64 1008.88 1009.12 1009.16 1009.20 1009.24
1005.40 1005.44 1005.44 1005.44 1005.60 1005.84 1005.88 1005.80 1005.72 1005.56 1005.40 1005.20 1005.04 1005.08 1005.20 1005.44 1005.64 1005.76 1005.80 1005.88 1006.00 1006.08 1006.24 1006.48 1006.64 1006.92 1007.36 1007.52 1007.60 1007.92 1008.16 1008.48 1008.72 1008.96 1009.32 1009.36 1009.36 1009.40 1009.92 1010.28 1010.84 1011.08 1010.64 1010.16 1010.00 1009.96 1009.88 1009.84 1009.80 1009.72 1009.60 1009.52 1009.52 1009.40 1009.20 1008.72 1008.20 1008.08 1008.32 1008.52 1008.68 1008.64 1008.68
1004.88 1004.96 1005.08 1005.00 1004.92 1005.00 1005.12 1005.24 1005.24 1005.12 1004.96 1004.88 1004.92 1005.04 1005.36 1005.60 1005.84 1006.00 1006.20 1006.28 1006.48 1006.52 1006.68 1006.88 1007.04 1007.32 1007.56 1007.76 1007.92 1008.16 1008.48 1008.68 1008.92 1009.28 1009.60 1009.84 1010.04 1010.20 1010.44 1010.80 1010.96 1010.72 1010.36 1010.20 1010.28 1010.20 1010.12 1010.16 1010.04 1009.92 1009.80 1009.52 1009.36 1009.36 1009.28 1009.08 1008.76 1008.28 1007.96 1007.96 1008.04 1008.12 1008.16
1005.16 1005.04 1004.68 1004.68 1004.60 1004.36 1004.44 1004.60 1004.84 1004.80 1004.80 1004.92 1005.16 1005.40 1005.56 1005.80 1005.96 1006.28 1006.56 1006.72 1007.16 1007.28 1007.24 1007.24 1007.32 1007.48 1007.76 1007.96 1008.24 1008.48 1008.60 1008.88 1009.20 1009.20 1009.72 1009.84 1010.08 1010.40 1010.56 1010.60 1010.48 1010.28 1010.40 1010.36 1010.40 1010.32 1010.20 1010.28 1010.36 1010.28 1010.16 1009.92 1009.68 1009.44 1009.24 1009.12 1009.00 1008.76 1008.52 1008.16 1008.00 1007.88 1007.76
1005.48 1005.80 1005.44 1004.80 1004.44 1004.24 1003.92 1004.00 1004.60 1004.76 1005.00 1005.28 1005.56 1005.76 1005.88 1006.08 1006.32 1006.52 1006.96 1007.08 1007.32 1007.48 1007.76 1007.88 1007.88 1007.84 1007.92 1008.12 1008.24 1008.56 1008.84 1009.04 1009.32 1009.56 1009.76 1010.04 1010.32 1010.40 1010.56 1010.56 1010.36 1010.44 1010.56 1010.92 1010.56 1010.48 1010.76 1010.92 1010.72 1010.64 1010.48 1010.16 1010.00 1009.96 1009.72 1009.36 1009.24 1009.08 1008.92 1008.80 1008.52 1008.28 1008.16
Thickness
5252 5247 5244 5240 5237 5233 5229 5225 5222 5219 5217 5215 5214 5211 5208 5206 5203 5202 5201 5200 5199 5198 5196 5195 5193 5192 5191 5189 5189 5190 5191 5190 5188 5187 5187 5188 5189 5188 5188 5189 5191 5194 5199 5205 5211 5218 5227 5236 5244 5251 5259 5267 5276 5284 5291 5300 5309 5317 5323 5331 5338 5347 5355
5244 5240 5236 5233 5231 5227 5223 5220 5217 5214 5212 5210 5209 5206 5203 5201 5198 5197 5196 5195 5195 5194 5193 5191 5189 5187 5186 5185 5184 5184 5186 5187 5186 5184 5184 5184 5183 5184 5185 5185 5186 5188 5191 5197 5202 5208 5215 5224 5232 5240 5248 5255 5264 5271 5279 5287 5296 5304 5311 5318 5326 5334 5342
5236 5232 5228 5225 5223 5220 5217 5214 5211 5209 5208 5206 5204 5201 5199 5197 5194 5194 5192 5192 5191 5190 5189 5188 5185 5184 5182 5181 5180 5179 5179 5181 5181 5181 5180 5179 5179 5179 5180 5181 5182 5184 5186 5189 5194 5199 5204 5212 5220 5229 5235 5243 5252 5259 5266 5275 5284 5292 5299 5307 5315 5323 5331
5228 5224 5221 5218 5215 5212 5210 5208 5205 5204 5202 5200 5198 5196 5195 5192 5190 5189 5188 5188 5188 5186 5186 5185 5183 5181 5179 5177 5176 5175 5175 5176 5176 5177 5177 5176 5175 5176 5176 5177 5179 5180 5182 5184 5189 5193 5196 5201 5209 5216 5223 5231 5239 5247 5255 5264 5273 5280 5287 5296 5304 5311 5319
5221 5218 5214 5211 5208 5205 5203 5201 5199 5198 5197 5195 5193 5191 5190 5188 5185 5184 5183 5183 5183 5182 5182 5181 5180 5178 5176 5174 5173 5171 5171 5172 5172 5173 5174 5173 5174 5174 5174 5174 5175 5177 5178 5180 5183 5186 5190 5194 5198 5204 5211 5218 5225 5234 5243 5253 5261 5269 5278 5286 5293 5300 5309
5215 5212 5209 5205 5202 5200 5198 5195 5193 5193 5192 5190 5189 5187 5185 5184 5181 5180 5179 5178 5178 5178 5177 5177 5176 5174 5173 5172 5171 5169 5168 5168 5168 5168 5169 5169 5170 5171 5171 5171 5172 5173 5175 5176 5178 5181 5185 5188 5190 5195 5200 5206 5212 5221 5230 5240 5249 5258 5267 5274 5281 5290 5298
5207 5206 5203 5200 5197 5194 5192 5190 5189 5188 5187 5185 5185 5183 5181 5179 5178 5177 5176 5175 5175 5174 5174 5174 5172 5171 5170 5169 5168 5167 5165 5165 5164 5164 5164 5165 5166 5166 5166 5167 5168 5169 5170 5172 5174 5177 5180 5183 5185 5189 5192 5196 5202 5210 5219 5227 5236 5246 5255 5263 5271 5280 5288
5199 5198 5196 5193 5191 5188 5186 5185 5184 5183 5183 5181 5179 5178 5176 5175 5174 5173 5173 5172 5172 5172 5172 5171 5170 5169 5167 5166 5165 5164 5163 5163 5162 5161 5160 5160 5161 5162 5162 5163 5164 5165 5166 5168 5169 5171 5175 5178 5181 5183 5186 5189 5193 5200 5208 5215 5223 5233 5243 5252 5261 5270 5277
5190 5188 5188 5186 5184 5182 5180 5180 5179 5178 5177 5176 5174 5172 5171 5170 5169 5169 5169 5169 5169 5169 5169 5168 5167 5166 5165 5163 5163 5163 5162 5161 5160 5159 5158 5158 5159 5159 5159 5159 5160 5161 5162 5164 5166 5168 5171 5173 5176 5180 5182 5184 5187 5192 5198 5204 5212 5223 5232 5240 5250 5259 5266
5181 5180 5180 5178 5176 5175 5174 5174 5174 5172 5171 5171 5169 5167 5166 5165 5165 5165 5165 5165 5165 5165 5165 5165 5165 5163 5162 5161 5161 5161 5160 5159 5158 5158 5157 5157 5157 5157 5156 5157 5157 5158 5159 5160 5162 5165 5167 5169 5172 5175 5178 5180 5182 5186 5191 5196 5204 5214 5221 5228 5237 5247 5256
5172 5173 5172 5170 5169 5169 5168 5168 5167 5166 5166 5166 5165 5164 5162 5161 5161 5161 5161 5161 5161 5161 5162 5162 5161 5160 5159 5159 5159 5159 5158 5158 5157 5157 5157 5156 5156 5156 5156 5156 5155 5155 5156 5158 5160 5163 5165 5166 5169 5171 5174 5175 5177 5180 5184 5188 5195 5203 5210 5216 5223 5233 5242
5165 5165 5165 5164 5163 5162 5162 5161 5160 5159 5160 5160 5161 5161 5160 5159 5158 5158 5158 5157 5156 5157 5157 5158 5159 5158 5158 5158 5158 5158 5157 5156 5157 5156 5156 5156 5155 5156 5157 5156 5155 5155 5155 5156 5158 5161 5163 5165 5166 5168 5169 5171 5173 5175 5178 5181 5186 5192 5198 5205 5213 5220 5228
5157 5158 5158 5157 5157 5156 5155 5155 5154 5153 5155 5156 5156 5157 5158 5158 5157 5155 5156 5155 5154 5153 5154 5154 5155 5156 5157 5157 5157 5157 5155 5154 5154 5155 5155 5156 5156 5156 5157 5157 5156 5156 5156 5156 5157 5159 5163 5165 5165 5166 5167 5168 5168 5169 5171 5173 5177 5182 5188 5195 5201 5208 5216
5151 5151 5151 5151 5151 5150 5149 5149 5148 5148 5149 5150 5151 5153 5154 5155 5155 5154 5154 5153 5153 5152 5152 5152 5153 5154 5156 5157 5157 5156 5155 5153 5153 5153 5153 5154 5155 5156 5157 5158 5158 5158 5158 5158 5157 5159 5163 5165 5165 5165 5166 5165 5163 5163 5165 5167 5171 5176 5180 5186 5191 5198 5205
5144 5144 5144 5144 5145 5144 5143 5143 5142 5142 5143 5145 5147 5148 5149 5151 5152 5153 5153 5152 5151 5151 5151 5151 5152 5153 5154 5156 5156 5156 5155 5154 5153 5152 5152 5154 5155 5155 5156 5157 5159 5159 5159 5159 5158 5159 5162 5164 5164 5165 5165 5163 5161 5161 5162 5164 5167 5171 5175 5180 5185 5190 5196
5138 5138 5137 5138 5138 5137 5137 5137 5137 5137 5139 5140 5142 5143 5144 5146 5148 5149 5150 5150 5150 5150 5150 5151 5152 5152 5154 5155 5156 5155 5155 5155 5154 5152 5152 5153 5154 5155 5156 5157 5159 5159 5160 5160 5160 5160 5161 5162 5163 5164 5163 5163 5162 5161 5161 5161 5163 5166 5170 5174 5178 5184 5189
5133 5133 5133 5133 5132 5132 5132 5131 5131 5133 5135 5136 5138 5139 5140 5142 5144 5146 5147 5148 5147 5148 5149 5151 5151 5152 5153 5154 5154 5155 5155 5155 5155 5152 5152 5153 5154 5154 5156 5157 5158 5159 5160 5162 5162 5162 5162 5162 5162 5162 5163 5163 5163 5162 5161 5160 5161 5164 5167 5171 5175 5180 5185
5128 5128 5127 5128 5128 5127 5127 5127 5127 5128 5130 5132 5133 5135 5137 5138 5140 5142 5144 5145 5145 5146 5148 5150 5151 5151 5151 5152 5153 5154 5155 5155 5156 5155 5154 5153 5153 5153 5155 5157 5157 5157 5158 5161 5161 5163 5163 5163 5163 5162 5163 5163 5163 5163 5162 5160 5162 5165 5167 5170 5174 5179 5183
5123 5122 5123 5123 5123 5122 5123 5123 5122 5124 5126 5128 5130 5132 5133 5135 5137 5139 5141 5142 5143 5145 5146 5149 5151 5151 5150 5151 5152 5153 5154 5156 5157 5157 5155 5153 5152 5153 5155 5157 5157 5156 5157 5158 5159 5161 5162 5163 5163 5164 5163 5163 5163 5163 5162 5161 5163 5166 5167 5169 5173 5176 5180
5118 5118 5119 5119 5118 5118 5119 5118 5118 5120 5122 5123 5126 5129 5131 5132 5135 5137 5138 5140 5142 5143 5146 5148 5150 5150 5151 5151 5151 5152 5153 5155 5156 5155 5154 5152 5151 5153 5156 5156 5156 5157 5158 5158 5158 5160 5160 5160 5162 5162 5162 5163 5163 5163 5163 5163 5163 5164 5166 5169 5172 5175 5178
5114 5114 5114 5115 5114 5114 5114 5114 5114 5116 5118 5120 5122 5126 5129 5131 5133 5134 5136 5137 5139 5142 5144 5147 5148 5150 5151 5151 5152 5153 5153 5153 5153 5152 5151 5150 5151 5153 5154 5154 5155 5157 5158 5158 5159 5159 5160 5160 5160 5160 5161 5162 5162 5163 5163 5163 5163 5164 5166 5168 5170 5172 5175
5109 5109 5109 5109 5110 5109 5110 5110 5111 5112 5113 5116 5120 5123 5127 5129 5131 5132 5134 5136 5139 5142 5143 5145 5147 5149 5150 5150 5150 5150 5150 5149 5148 5147 5148 5148 5150 5151 5152 5152 5154 5156 5157 5158 5159 5159 5159 5160 5159 5159 5160 5160 5161 5162 5163 5163 5164 5164 5165 5167 5168 5170 5172
5105 5104 5105 5105 5106 5106 5106 5107 5108 5109 5111 5113 5116 5120 5124 5128 5130 5131 5133 5135 5138 5140 5141 5143 5145 5146 5147 5146 5145 5146 5145 5145 5144 5144 5145 5145 5146 5147 5149 5150 5153 5154 5156 5157 5158 5158 5159 5159 5159 5159 5159 5160 5161 5160 5161 5162 5164 5165 5165 5166 5166 5168 5169
5102 5101 5101 5102 5102 5103 5103 5104 5105 5107 5109 5112 5115 5118 5122 5126 5128 5130 5133 5134 5136 5138 5139 5141 5142 5143 5143 5143 5142 5142 5141 5141 5140 5141 5141 5141 5142 5143 5145 5146 5147 5149 5152 5155 5155 5156 5157 5159 5159 5159 5158 5159 5159 5160 5161 5161 5162 5164 5165 5165 5165 5165 5165
5101 5099 5099 5099 5099 5100 5101 5102 5104 5106 5109 5112 5115 5118 5121 5125 5128 5130 5132 5133 5134 5136 5137 5139 5139 5139 5139 5138 5138 5137 5137 5137 5137 5136 5137 5137 5138 5139 5140 5142 5142 5144 5147 5150 5153 5155 5157 5158 5159 5159 5158 5158 5158 5158 5158 5159 5158 5159 5160 5160 5161 5161 5162
5099 5097 5096 5096 5097 5098 5100 5101 5103 5107 5109 5112 5115 5117 5120 5124 5127 5130 5131 5132 5133 5134 5135 5136 5136 5136 5135 5135 5135 5134 5134 5134 5133 5132 5132 5133 5134 5135 5136 5138 5139 5141 5143 5146 5149 5151 5153 5155 5156 5157 5157 5156 5155 5155 5155 5155 5155 5155 5155 5155 5155 5156 5157
5096 5095 5094 5094 5095 5096 5098 5100 5104 5107 5110 5112 5115 5117 5119 5123 5126 5128 5129 5130 5131 5132 5132 5132 5132 5131 5131 5131 5131 5131 5131 5131 5130 5128 5129 5129 5129 5130 5132 5133 5135 5137 5139 5141 5144 5146 5147 5150 5151 5153 5153 5152 5152 5152 5153 5152 5152 5152 5151 5150 5149 5150 5152
5094 5093 5093 5093 5093 5095 5097 5100 5104 5107 5110 5112 5114 5116 5119 5121 5123 5125 5126 5127 5128 5127 5127 5127 5127 5127 5128 5127 5127 5127 5127 5126 5125 5124 5124 5124 5124 5125 5126 5128 5130 5132 5135 5137 5138 5139 5142 5143 5145 5148 5149 5150 5151 5151 5152 5151 5149 5148 5148 5147 5145 5145 5147
5093 5092 5092 5092 5092 5094 5097 5101 5104 5108 5110 5112 5114 5116 5118 5119 5121 5122 5123 5124 5124 5123 5122 5123 5123 5123 5124 5124 5123 5123 5122 5122 5121 5119 5119 5119 5119 5121 5123 5125 5127 5129 5131 5132 5133 5134 5136 5139 5141 5143 5146 5148 5150 5151 5150 5149 5148 5146 5145 5144 5143 5143 5144
5092 5091 5090 5089 5091 5094 5096 5100 5105 5108 5110 5111 5113 5114 5116 5117 5118 5120 5121 5121 5121 5120 5120 5120 5120 5121 5121 5120 5120 5120 5119 5118 5117 5117 5117 5116 5116 5119 5120 5121 5123 5125 5125 5127 5128 5130 5133 5134 5136 5139 5142 5145 5147 5150 5150 5149 5147 5145 5144 5142 5142 5143 5144
5092 5091 5089 5088 5089 5091 5094 5098 5101 5105 5108 5110 5112 5112 5114 5115 5116 5118 5118 5119 5119 5118 5118 5118 5118 5118 5118 5117 5118 5117 5116 5115 5114 5114 5114 5113 5113 5114 5114 5116 5118 5118 5119 5121 5124 5125 5128 5130 5132 5134 5137 5140 5143 5145 5148 5148 5147 5145 5143 5142 5142 5143 5144
5091 5091 5091 5089 5088 5089 5092 5094 5098 5101 5105 5107 5109 5111 5112 5113 5114 5115 5115 5116 5116 5115 5116 5116 5116 5115 5114 5113 5113 5112 5111 5109 5109 5108 5108 5108 5109 5109 5109 5109 5110 5110 5112 5116 5119 5121 5123 5125 5127 5129 5132 5135 5138 5140 5142 5146 5146 5145 5144 5143 5143 5144 5145
5089 5090 5091 5091 5090 5090 5091 5094 5096 5099 5102 5105 5107 5109 5108 5108 5109 5109 5110 5111 5112 5112 5112 5111 5111 5110 5108 5108 5108 5107 5105 5103 5103 5101 5100 5100 5102 5103 5102 5101 5101 5102 5106 5111 5114 5116 5118 5120 5121 5124 5126 5129 5132 5134 5137 5140 5144 5146 5145 5144 5144 5145 5146
5088 5089 5090 5090 5092 5092 5093 5094 5096 5098 5101 5103 5104 5105 5104 5103 5103 5103 5103 5104 5104 5105 5105 5105 5105 5104 5103 5102 5102 5101 5099 5098 5097 5096 5095 5094 5094 5095 5095 5095 5096 5099 5103 5107 5108 5110 5113 5114 5115 5118 5121 5124 5127 5130 5132 5135 5138 5141 5144 5145 5145 5146 5146
5083 5085 5086 5088 5091 5093 5095 5095 5095 5097 5099 5099 5099 5099 5099 5098 5098 5097 5097 5097 5096 5097 5097 5098 5099 5099 5098 5097 5096 5095 5094 5093 5092 5090 5090 5089 5089 5090 5090 5091 5094 5097 5098 5101 5103 5106 5107 5108 5109 5111 5114 5117 5121 5123 5128 5131 5133 5135 5139 5141 5143 5144 5146
5075 5076 5078 5083 5086 5090 5093 5095 5093 5094 5094 5093 5093 5093 5092 5092 5092 5091 5091 5091 5090 5090 5090 5091 5092 5092 5092 5092 5091 5090 5088 5087 5086 5085 5085 5084 5084 5084 5086 5088 5091 5092 5093 5095 5098 5100 5099 5100 5103 5105 5107 5111 5115 5118 5122 5125 5128 5129 5132 5134 5137 5139 5141